This is the latest recevied weather packets stored in our database for station/object N2PPN. If no packets are shown the sender has not sent any weather packets the latest 10 day(s).
| Time | Temp. | Humidity | Pressure | Rain* | Wind** | Luminosity | Snow |
|---|---|---|---|---|---|---|---|
| 1777994861 | 18.33° C | 73% | 1014.8 hPa | 0 mm | - | 667 W/m² | - |
| 1777994557 | 18.33° C | 75% | 1014.6 hPa | 0 mm | - | 664 W/m² | - |
| 1777994252 | 17.78° C | 74% | 1014.9 hPa | 0 mm | - | 657 W/m² | - |
| 1777993950 | 18.33° C | 74% | 1014.9 hPa | 0 mm | - | 649 W/m² | - |
| 1777993647 | 18.33° C | 75% | 1015.1 hPa | 0 mm | - | 641 W/m² | - |
| 1777993345 | 17.78° C | 75% | 1015 hPa | 0 mm | - | 633 W/m² | - |
| 1777993044 | 17.78° C | 76% | 1015 hPa | 0 mm | - | 626 W/m² | - |
| 1777992743 | 17.78° C | 76% | 1015.1 hPa | 0 mm | - | 618 W/m² | - |
| 1777992440 | 17.78° C | 76% | 1015.1 hPa | 0 mm | - | 610 W/m² | - |
| 1777992138 | 17.78° C | 76% | 1015.2 hPa | 0 mm | - | 599 W/m² | - |
| 1777991835 | 17.78° C | 76% | 1015.1 hPa | 0 mm | - | 589 W/m² | - |
| 1777991532 | 17.78° C | 75% | 1015.3 hPa | 0 mm | - | 581 W/m² | - |
| 1777991229 | 17.78° C | 76% | 1015.1 hPa | 0 mm | - | 570 W/m² | - |
| 1777990926 | 17.78° C | 76% | 1015.2 hPa | 0 mm | - | 559 W/m² | - |
| 1777990624 | 18.33° C | 75% | 1015.1 hPa | 0 mm | - | 550 W/m² | - |
| 1777990016 | 17.78° C | 76% | 1014.8 hPa | 0 mm | - | 525 W/m² | - |
| 1777989714 | 17.78° C | 75% | 1014.8 hPa | 0 mm | - | 524 W/m² | - |
| 1777989410 | 18.33° C | 76% | 1014.8 hPa | 0 mm | - | 510 W/m² | - |
| 1777989106 | 18.33° C | 74% | 1014.6 hPa | 0 mm | - | 497 W/m² | - |
| 1777988802 | 18.33° C | 74% | 1014.7 hPa | 0 mm | - | 485 W/m² | - |
| 1777988500 | 18.33° C | 74% | 1014.7 hPa | 0 mm | - | 473 W/m² | - |
| 1777988197 | 18.33° C | 75% | 1014.7 hPa | 0 mm | - | 461 W/m² | - |
| 1777987893 | 17.78° C | 76% | 1014.8 hPa | 0 mm | - | 448 W/m² | - |
| 1777987589 | 17.78° C | 76% | 1014.8 hPa | 0 mm | - | 433 W/m² | - |
| 1777987287 | 18.33° C | 76% | 1014.7 hPa | 0 mm | - | 422 W/m² | - |
* Rain latest hour (hover to see other rain measurements)
** Current wind speed in m/s (hover to see current wind gust speed)